Theta_e
312 311 311 310 309 305 298 293 294 304 302 291 289 288 294 300 301 304 302 300 298 296 296 295 295 298 299 306 305 299 298 295 292 295 301 302 298 294 292 288 288 288 286 287
312 311 311 310 309 302 293 292 295 304 302 288 287 293 300 304 301 300 300 298 299 299 294 291 297 299 305 305 302 297 296 291 286 289 293 299 296 297 295 292 290 288 286 290
312 311 310 310 308 304 293 293 293 297 297 294 293 292 296 298 304 301 301 298 298 295 293 295 293 298 304 306 306 312 303 294 289 286 290 296 294 297 297 291 286 288 290 292
312 311 310 310 308 304 294 292 293 296 291 293 293 292 296 296 298 300 300 297 297 294 289 293 294 299 300 304 306 302 296 289 293 295 297 298 297 297 297 293 293 289 293 292
312 311 311 310 308 303 293 292 292 293 295 295 293 292 292 297 300 299 298 295 300 297 294 295 294 297 295 296 298 296 297 292 293 292 298 296 294 297 297 295 295 296 295 293
312 311 311 310 308 300 289 293 295 294 293 292 293 293 296 299 299 301 302 300 298 297 299 300 298 299 299 297 295 294 294 293 291 288 295 294 290 294 295 295 300 299 296 299
312 312 311 310 308 300 294 294 294 291 289 292 293 297 299 298 298 297 302 301 297 302 305 301 298 296 298 298 297 296 292 292 291 287 289 282 293 298 299 299 301 300 304 304
312 311 311 310 309 304 294 293 294 292 289 293 296 297 296 296 297 296 300 303 303 302 299 293 290 291 292 295 296 295 294 291 287 284 284 289 294 297 297 295 297 299 298 305
312 312 311 311 309 307 296 293 295 293 292 291 297 295 295 292 291 294 299 302 301 299 294 291 285 285 290 289 292 296 295 293 289 286 283 282 292 300 304 301 292 299 299 300
312 312 312 311 310 307 296 293 296 295 292 294 294 292 292 295 293 292 295 297 297 296 289 288 286 286 292 286 287 288 288 289 287 285 284 288 297 302 305 289 290 300 299 298
312 312 312 311 310 308 297 293 298 296 292 294 298 299 293 294 293 290 294 294 295 292 289 288 288 287 289 288 290 288 288 286 286 286 283 283 299 300 294 298 302 301 298 298
312 312 312 311 310 309 301 296 300 300 295 295 298 298 299 298 298 294 293 293 294 294 291 290 289 288 288 287 285 293 287 290 287 290 289 296 297 297 300 300 298 299 299 300
311 312 312 311 310 309 302 297 297 296 293 293 293 294 297 299 300 299 293 294 296 294 296 292 290 288 290 286 287 288 292 292 288 289 291 294 296 297 298 297 297 300 301 300
311 311 311 311 310 308 303 298 299 297 292 288 291 299 297 300 299 300 299 297 295 295 294 291 289 288 291 287 289 287 292 290 288 288 292 293 294 296 296 297 298 299 300 300
311 311 311 310 309 307 301 299 300 298 294 288 291 294 295 296 298 297 295 294 291 290 290 288 288 289 288 286 287 285 291 289 286 287 292 290 292 296 297 297 297 298 298 298
312 312 311 309 308 306 298 293 297 298 297 292 287 293 293 294 296 295 294 293 290 289 287 286 287 289 287 283 281 288 290 292 291 289 294 294 296 297 297 297 298 299 298 299
311 310 309 308 306 300 296 292 296 301 297 291 286 287 293 295 293 292 292 292 290 289 287 286 286 286 287 283 281 288 291 293 293 294 293 292 295 294 297 297 298 300 299 300
309 307 306 306 305 303 298 299 303 301 295 292 286 286 289 293 289 288 290 288 288 288 287 287 286 286 286 283 288 291 293 294 294 295 295 294 296 297 297 299 299 298 299 300
306 306 307 303 301 296 297 306 304 301 295 285 286 285 283 292 289 289 289 288 285 288 285 285 286 283 282 287 288 290 292 292 293 295 296 299 297 297 299 299 298 297 298 300
306 302 296 291 297 306 305 298 292 292 291 289 285 288 288 290 288 286 287 287 284 282 285 288 284 283 289 291 294 294 295 295 297 298 298 300 300 301 301 301 303 303 303 304
298 293 292 298 307 298 295 289 286 286 285 286 286 287 288 292 287 286 287 282 284 281 284 285 284 282 293 299 299 301 302 302 302 302 302 302 301 301 301 301 303 303 303 304
299 299 301 298 295 292 288 284 286 285 284 286 285 286 289 290 292 288 288 284 284 282 288 284 282 288 295 297 299 301 302 302 302 303 302 303 303 304 303 303 303 305 306 305
300 296 292 290 290 283 281 280 281 282 286 287 286 285 287 287 288 286 287 284 282 288 283 283 286 292 295 296 299 301 302 302 302 302 304 305 305 306 306 305 307 307 306 307
292 288 283 284 284 283 283 283 284 287 288 288 288 285 285 285 284 284 283 285 285 281 280 282 288 291 296 298 300 300 300 301 301 303 305 305 305 304 303 303 302 302 301 304
289 290 282 284 287 287 287 288 287 289 291 290 288 287 287 285 286 286 284 283 281 282 284 287 291 294 296 297 299 299 300 301 302 304 305 305 304 302 300 301 301 301 301 301
292 290 286 287 284 284 287 288 290 293 292 290 289 285 283 283 285 284 284 282 282 284 288 291 292 294 295 296 299 300 301 301 303 304 304 304 303 300 300 300 300 300 304 302
291 287 289 289 288 288 289 293 292 293 290 285 284 283 283 286 283 283 286 284 286 288 290 292 293 293 295 298 299 301 302 303 305 304 305 303 303 302 299 298 299 300 301 304
Wind_Speed
13 12 9 6 2 5 6 1 1 2 2 5 1 3 5 5 4 4 5 5 4 3 4 4 3 5 6 11 5 4 3 4 2 3 8 3 6 3 5 5 6 1 2 9
13 11 10 7 4 5 3 1 3 3 4 3 2 5 4 2 3 2 1 3 2 1 1 3 3 4 5 9 7 4 4 3 4 10 7 7 6 3 1 3 3 3 2 9
15 13 11 9 8 7 4 3 1 4 4 1 5 2 3 3 5 2 2 3 3 3 2 4 3 7 5 5 5 7 5 3 6 7 6 2 4 5 3 3 3 4 6 9
16 15 13 12 10 8 4 2 4 3 3 4 4 3 2 2 3 2 4 3 2 3 1 3 2 3 6 4 10 5 5 1 1 4 5 2 3 6 3 5 7 5 7 6
18 17 16 14 12 8 3 4 2 3 1 2 6 2 3 5 0 2 1 2 3 2 3 2 3 2 1 2 5 4 4 1 1 3 3 5 3 9 8 3 1 3 5 3
20 18 17 15 14 7 3 2 2 3 2 2 4 4 3 1 2 4 4 1 5 6 2 2 2 3 3 4 2 1 1 3 3 5 3 5 6 5 2 2 6 2 6 2
21 20 19 17 16 8 3 2 2 4 0 2 3 2 1 3 1 6 3 5 5 3 2 1 3 4 5 5 7 5 6 5 3 3 3 3 5 6 2 9 5 8 3 2
21 21 20 19 17 12 2 1 3 3 3 0 3 5 3 4 5 3 3 4 2 2 6 5 6 6 8 5 3 3 6 5 2 2 3 6 10 2 2 2 3 7 3 6
23 22 21 19 17 14 3 2 3 3 6 2 3 1 3 2 2 4 3 3 3 6 4 4 3 2 1 6 8 5 7 5 5 2 3 5 8 2 4 1 1 2 7 7
24 23 22 20 18 16 4 3 3 3 5 2 2 3 3 2 3 3 3 5 4 4 3 3 3 3 2 3 3 3 3 2 5 3 4 7 7 11 8 3 6 2 4 4
25 24 22 21 19 17 5 3 4 4 3 3 3 2 3 2 3 4 3 4 4 4 4 3 3 3 4 2 3 3 3 3 4 2 2 5 7 5 3 4 6 3 4 4
26 24 23 21 19 17 7 1 1 2 5 4 2 3 1 2 5 6 4 3 1 2 5 0 2 1 1 2 4 3 3 5 2 5 5 4 4 5 2 1 3 5 5 7
26 25 24 21 19 16 7 3 1 4 3 3 3 3 1 3 3 3 5 2 3 2 3 4 2 3 4 3 5 3 2 3 2 3 4 5 3 3 2 3 5 9 9 8
27 26 24 21 18 16 6 3 1 4 4 4 4 3 3 4 3 5 4 6 4 5 3 2 2 2 3 3 4 4 3 2 3 6 9 8 5 5 4 6 6 8 9 8
28 27 24 21 18 16 4 2 0 2 5 5 2 3 3 2 6 8 6 6 4 2 2 2 3 2 2 1 2 4 5 5 2 9 10 6 8 8 7 14 14 13 14 13
30 28 25 21 18 14 2 3 3 0 3 5 2 3 2 3 5 7 5 4 3 3 4 3 3 3 3 1 4 6 5 4 5 6 5 6 16 13 11 14 16 16 12 12
30 28 24 20 16 4 3 5 3 1 2 5 2 2 3 3 4 3 3 3 2 3 2 1 1 2 3 2 3 9 8 8 10 10 6 8 8 9 9 9 15 14 12 11
32 29 24 17 12 7 5 3 3 2 5 3 4 1 2 1 1 1 1 2 2 2 2 1 1 2 2 4 10 9 6 8 10 11 7 9 12 12 14 14 13 12 12 11
34 31 22 8 6 3 2 1 7 4 4 4 2 5 5 1 1 1 3 2 1 1 1 2 4 1 4 8 8 10 11 6 12 14 12 12 10 12 11 9 9 8 11 11
36 14 5 3 3 6 5 7 4 4 3 3 2 1 3 5 1 1 2 2 2 1 5 3 3 4 6 7 9 9 10 9 8 6 9 10 14 13 13 15 13 11 12 12
4 4 3 3 16 3 2 3 3 2 1 3 4 5 4 1 4 3 2 3 1 0 4 4 3 3 4 7 9 9 8 7 9 8 11 12 13 14 14 16 14 13 14 14
8 11 10 5 3 2 4 4 3 4 7 4 5 5 5 2 4 4 1 3 3 4 2 2 2 4 5 6 9 10 10 11 14 14 16 17 17 16 16 16 17 16 15 14
10 7 4 4 3 4 9 9 5 4 5 5 4 4 5 2 3 3 3 3 5 1 0 3 4 3 6 7 7 11 12 13 14 16 15 16 16 17 17 17 16 17 17 15
5 5 7 5 6 6 6 5 5 5 5 8 6 4 4 1 3 3 3 4 3 1 2 4 3 5 7 8 9 10 14 14 14 17 17 16 15 11 10 10 12 14 15 15
5 4 5 6 4 3 4 3 3 2 7 7 5 4 4 3 4 0 2 2 4 4 3 3 4 6 7 8 9 11 12 13 13 15 14 14 11 10 11 13 16 17 19 16
4 4 3 1 4 1 3 3 3 2 4 4 5 4 4 1 4 3 6 3 4 3 3 4 4 6 7 7 9 11 10 12 12 14 15 9 9 9 12 14 16 19 17 4
1 1 2 3 5 4 2 4 3 2 5 4 4 4 5 3 3 2 2 4 3 3 4 3 4 6 9 9 9 10 11 12 12 13 11 8 8 8 11 14 16 16 15 14
Wind_Direction
199 219 211 225 286 11 53 75 64 311 58 57 10 174 206 303 316 350 29 92 77 86 37 30 58 61 4 336 333 38 352 126 354 284 303 319 66 82 104 104 299 325 174 275
195 186 191 195 157 86 121 119 263 319 89 149 259 279 284 270 307 304 76 101 73 335 84 104 39 32 336 2 42 50 350 13 18 348 351 13 50 37 70 127 75 227 120 273
186 179 181 177 164 145 96 91 89 322 49 129 146 218 268 304 316 220 79 119 100 83 37 26 40 355 1 356 29 37 75 100 150 196 220 203 313 325 280 149 145 223 224 275
184 177 177 173 166 158 96 115 239 207 201 264 187 158 299 315 26 23 40 39 99 159 156 65 92 341 327 1 354 39 74 110 260 250 256 276 252 280 240 212 238 186 264 262
184 176 175 170 163 139 89 154 163 349 179 5 119 142 243 192 184 54 16 139 48 115 128 155 163 161 3 289 344 48 1 269 349 270 2 341 280 273 286 303 3 281 291 287
181 175 174 175 160 132 146 269 291 121 304 66 104 207 255 167 80 347 47 93 97 76 116 202 235 207 194 210 202 298 132 128 69 253 325 330 319 273 282 307 30 301 57 280
180 174 171 174 168 160 145 189 119 97 254 95 117 9 265 357 74 138 351 62 103 213 291 314 28 331 294 250 243 181 164 131 142 244 357 247 245 287 207 98 53 25 3 335
178 173 174 175 173 173 119 169 128 128 95 20 28 31 28 3 6 72 84 25 44 16 47 49 14 342 360 315 342 270 184 124 127 165 212 298 312 129 9 258 71 354 306 336
180 173 173 174 171 167 105 237 152 107 118 274 293 45 18 113 48 15 30 6 13 64 81 78 126 231 282 315 325 65 75 87 120 140 180 227 244 268 268 159 204 341 65 36
180 172 173 172 168 164 133 239 178 96 107 291 47 132 159 121 96 118 343 344 27 48 74 89 147 249 251 259 265 328 6 38 187 185 223 281 323 316 342 21 249 215 115 118
177 171 172 169 169 167 141 240 189 125 112 298 9 26 89 64 68 126 272 41 348 48 79 123 212 184 247 338 267 279 210 186 225 110 201 284 327 28 49 283 339 335 314 342
170 169 168 168 167 167 142 122 291 125 94 182 310 284 285 143 174 130 20 157 93 160 91 126 106 243 6 172 272 328 266 187 208 166 224 218 3 116 210 303 278 269 246 243
167 165 164 166 164 163 152 155 166 63 78 1 34 290 263 88 132 154 117 302 163 67 174 160 174 218 131 206 244 277 263 76 158 29 284 214 200 240 80 336 303 299 288 279
163 160 161 160 158 159 140 127 169 93 107 111 276 345 105 134 113 83 89 127 54 101 74 102 138 180 155 218 245 225 211 12 197 253 277 299 266 234 250 320 274 274 282 268
160 157 156 156 155 154 124 97 140 142 127 155 241 318 19 115 112 100 81 92 91 72 54 89 226 231 112 316 335 251 180 222 233 270 285 215 253 272 283 289 275 268 272 272
156 152 150 150 148 149 110 66 329 30 107 96 103 296 187 105 104 108 104 113 98 95 136 217 268 268 105 228 258 262 254 257 231 249 250 254 281 273 258 268 277 281 276 265
149 142 140 137 129 93 98 171 202 26 94 80 57 1 331 119 83 37 67 42 108 115 130 236 237 322 91 121 252 257 253 260 273 263 284 291 268 263 276 272 275 276 265 258
135 125 114 99 105 100 40 348 36 83 85 75 117 225 67 148 79 40 11 85 31 8 172 38 165 356 56 257 252 281 276 292 289 280 260 244 276 290 285 281 281 280 274 275
120 111 99 59 33 55 262 345 69 58 101 138 121 143 208 54 94 106 28 76 55 284 161 254 102 309 226 236 283 295 295 249 283 298 297 291 283 277 279 279 283 268 279 275
119 106 78 133 190 177 108 7 36 19 351 47 184 150 176 114 108 6 89 30 173 187 246 111 141 252 261 275 276 271 286 287 301 298 302 294 293 293 292 289 283 269 274 275
69 115 113 129 137 86 105 138 159 178 209 194 217 178 143 245 120 165 173 179 178 19 263 151 203 268 258 298 312 312 307 294 286 259 273 279 273 281 289 292 283 275 271 267
138 110 104 114 93 141 151 185 154 189 209 186 154 186 175 173 120 107 207 143 59 248 169 173 258 246 254 288 303 305 305 305 309 311 306 304 298 292 291 287 282 277 274 273
98 72 110 148 158 161 180 180 207 194 177 165 157 135 141 66 62 76 113 138 224 35 31 233 216 246 295 290 302 315 317 316 313 308 305 301 299 298 292 288 282 281 276 268
88 121 143 191 177 209 190 176 173 211 130 136 131 104 127 144 83 136 148 221 115 249 231 246 257 270 304 323 317 315 310 311 309 310 309 301 305 313 310 304 293 287 276 270
110 137 178 199 195 175 175 176 116 100 131 118 91 56 88 39 107 118 86 186 230 205 206 237 269 304 303 299 302 304 310 315 311 314 316 308 319 320 313 313 305 296 278 253
133 168 142 192 101 129 107 141 106 135 115 85 57 91 76 158 137 130 210 195 216 221 217 247 300 296 299 290 298 301 303 305 301 314 314 331 337 335 326 329 329 325 337 161
187 81 86 116 97 127 134 107 103 103 76 104 103 108 186 123 126 218 186 193 206 225 275 281 269 278 287 293 297 310 307 304 310 313 326 335 327 340 351 348 346 354 17 49